,,Stat1,,Stat2,,Stat3,,Stat4,,Wind1,,Wind1,
time,status,PR1M_SUM,status,RH1M_AVG,status,SR1M_AVG,status,TA1M_AVG,status,W1dAve1m,status,W1sAve1m,
1999-12-24, 00:01:00,VALID,0,VALID,98.3357,VALID,0,VALID,18.7288,VALID,219,VALID,0.842607,
1999-12-24, 00:02:00,VALID,0,VALID,98.3942,VALID,0.0169808,VALID,18.7186,VALID,215,VALID,0.569311,
1999-12-24, 00:03:00,VALID,0,VALID,98.412,VALID,0.0169808,VALID,18.7154,VALID,222,VALID,0.59395,
1999-12-24, 00:04:01,VALID,0,VALID,98.4158,VALID,0,VALID,18.7057,VALID,227,VALID,0.548678,
1999-12-24, 00:05:00,VALID,0,VALID,98.4603,VALID,-0.0169808,VALID,18.6997,VALID,228,VALID,0.875801,
1999-12-24, 00:06:00,VALID,0,VALID,98.4642,VALID,0,VALID,18.7069,VALID,226,VALID,1.19819,
1999-12-24, 00:07:00,VALID,0,VALID,98.4667,VALID,0,VALID,18.7029,VALID,226,VALID,1.41068,
1999-12-24, 00:08:00,VALID,0,VALID,98.4896,VALID,0.0169808,VALID,18.7029,VALID,225,VALID,1.23199,
1999-12-24, 00:09:00,VALID,0,VALID,98.5392,VALID,0,VALID,18.7031,VALID,232,VALID,1.42064,
1999-12-24, 00:10:00,VALID,0,VALID,98.5595,VALID,0,VALID,18.6994,VALID,227,VALID,1.08022,
1999-12-24, 00:11:00,VALID,0,VALID,98.5888,VALID,-0.0339617,VALID,18.7103,VALID,233,VALID,0.79043,
1999-12-24, 00:12:00,VALID,0,VALID,98.6307,VALID,-0.0339617,VALID,18.6972,VALID,244,VALID,1.1102,
1999-12-24, 00:13:00,VALID,0,VALID,98.6969,VALID,-0.0169808,VALID,18.6842,VALID,227,VALID,0.820898,
1999-12-24, 00:14:00,VALID,0,VALID,98.7274,VALID,-0.0169808,VALID,18.6817,VALID,230,VALID,1.07118,
1999-12-24, 00:15:00,VALID,0,VALID,98.7744,VALID,-0.0509425,VALID,18.6748,VALID,233,VALID,1.4543,
1999-12-24, 00:16:00,VALID,0,VALID,98.7986,VALID,-0.0679233,VALID,18.6618,VALID,233,VALID,1.27031,
1999-12-24, 00:17:00,VALID,0,VALID,98.8329,VALID,-0.0169808,VALID,18.6685,VALID,238,VALID,1.36993,
1999-12-24, 00:18:00,VALID,0,VALID,98.8622,VALID,-0.0339617,VALID,18.675,VALID,230,VALID,1.03633,
1999-12-24, 00:19:00,VALID,0,VALID,98.8914,VALID,-0.0849042,VALID,18.6621,VALID,230,VALID,1.38281,
1999-12-24, 00:20:00,VALID,0,VALID,98.913,VALID,-0.0339617,VALID,18.6651,VALID,235,VALID,1.17681,
1999-12-24, 00:21:00,VALID,0,VALID,98.9054,VALID,-0.0679233,VALID,18.6618,VALID,212,VALID,1.01953,
1999-12-24, 00:22:00,VALID,0,VALID,98.913,VALID,-0.0169808,VALID,18.6621,VALID,213,VALID,1.30279,
1999-12-24, 00:23:00,VALID,0,VALID,98.9003,VALID,-0.0169808,VALID,18.6618,VALID,226,VALID,1.44453,
1999-12-24, 00:24:00,VALID,0,VALID,98.8329,VALID,-0.0169808,VALID,18.6551,VALID,221,VALID,1.41126,
1999-12-24, 00:25:00,VALID,0,VALID,98.7986,VALID,-0.0169808,VALID,18.6648,VALID,206,VALID,0.992393,
1999-12-24, 00:26:00,VALID,0,VALID,98.7236,VALID,-0.0169808,VALID,18.6644,VALID,203,VALID,1.37129,
1999-12-24, 00:27:00,VALID,0,VALID,98.6638,VALID,0.0679233,VALID,18.687,VALID,224,VALID,0.66862,
1999-12-24, 00:28:00,VALID,0,VALID,98.5926,VALID,0.101885,VALID,18.6863,VALID,216,VALID,1.86575,
1999-12-24, 00:29:00,VALID,0,VALID,98.5252,VALID,0.0849042,VALID,18.699,VALID,224,VALID,1.18647,
1999-12-24, 00:30:00,VALID,0,VALID,98.4286,VALID,0.0679233,VALID,18.7094,VALID,225,VALID,1.49856,
1999-12-24, 00:31:00,VALID,0,VALID,98.412,VALID,0.0849042,VALID,18.7089,VALID,228,VALID,1.12522,
1999-12-24, 00:32:00,VALID,0,VALID,98.4311,VALID,0.0849042,VALID,18.7255,VALID,221,VALID,1.07704,
1999-12-24, 00:33:00,VALID,0,VALID,98.4489,VALID,0.0509425,VALID,18.7091,VALID,216,VALID,0.897852,
1999-12-24, 00:34:00,VALID,0,VALID,98.4425,VALID,0.0679233,VALID,18.7054,VALID,207,VALID,1.16426,
1999-12-24, 00:35:00,VALID,0,VALID,98.4146,VALID,0.101885,VALID,18.6858,VALID,196,VALID,1.07072,
1999-12-24, 00:36:00,VALID,0,VALID,98.4235,VALID,0.101885,VALID,18.689,VALID,223,VALID,1.13836,
1999-12-24, 00:37:00,VALID,0,VALID,98.3802,VALID,0.101885,VALID,18.6731,VALID,223,VALID,1.07686,
1999-12-24, 00:38:00,VALID,0,VALID,98.4171,VALID,0.0339617,VALID,18.6731,VALID,217,VALID,0.760938,
1999-12-24, 00:39:00,VALID,0,VALID,98.4578,VALID,0.101885,VALID,18.6831,VALID,203,VALID,0.645232,
1999-12-24, 00:40:00,VALID,0,VALID,98.4273,VALID,0.0679233,VALID,18.6731,VALID,219,VALID,0,
1999-12-24, 00:41:00,VALID,0,VALID,98.4018,VALID,0.0339617,VALID,18.6743,VALID,233,VALID,0,
1999-12-24, 00:42:00,VALID,0,VALID,98.384,VALID,-0.0339617,VALID,18.678,VALID,217,VALID,0,
1999-12-24, 00:43:00,VALID,0,VALID,98.3357,VALID,-0.0169808,VALID,18.6676,VALID,220,VALID,1.00473,
1999-12-24, 00:44:00,VALID,0,VALID,98.2671,VALID,0,VALID,18.6711,VALID,221,VALID,1.4229,
1999-12-24, 00:45:00,VALID,0,VALID,98.2073,VALID,0.0169808,VALID,18.681,VALID,211,VALID,1.67496,
1999-12-24, 00:46:00,VALID,0,VALID,98.1806,VALID,-0.0339617,VALID,18.6845,VALID,214,VALID,0.896484,
1999-12-24, 00:47:00,VALID,0,VALID,98.1958,VALID,-0.0509425,VALID,18.6879,VALID,210,VALID,0.861762,
1999-12-24, 00:48:01,VALID,0,VALID,98.1895,VALID,-0.0339617,VALID,18.6849,VALID,189,VALID,0.641211,
1999-12-24, 00:49:01,VALID,0,VALID,98.2353,VALID,-0.0339617,VALID,18.6877,VALID,219,VALID,0.765039,
1999-12-24, 00:50:00,VALID,0,VALID,98.2264,VALID,0,VALID,18.675,VALID,220,VALID,0.739515,
1999-12-24, 00:51:00,VALID,0,VALID,98.1908,VALID,-0.0339617,VALID,18.675,VALID,222,VALID,0.657484,
1999-12-24, 00:52:00,VALID,0,VALID,98.1869,VALID,-0.0169808,VALID,18.6949,VALID,217,VALID,1.06461,
1999-12-24, 00:53:00,VALID,0,VALID,98.1768,VALID,-0.0169808,VALID,18.6842,VALID,222,VALID,0.706836,
1999-12-24, 00:54:00,VALID,0,VALID,98.1564,VALID,-0.0169808,VALID,18.6979,VALID,187,VALID,0.892027,
1999-12-24, 00:55:00,VALID,0,VALID,98.1157,VALID,-0.0169808,VALID,18.6743,VALID,203,VALID,1.11904,
1999-12-24, 00:56:00,VALID,0,VALID,98.1323,VALID,-0.0169808,VALID,18.6812,VALID,199,VALID,1.25234,
1999-12-24, 00:57:00,VALID,0,VALID,98.1869,VALID,0,VALID,18.6745,VALID,214,VALID,0.796441,
1999-12-24, 00:58:00,VALID,0,VALID,98.2543,VALID,0,VALID,18.6782,VALID,207,VALID,0.858141,
1999-12-24, 00:59:01,VALID,0,VALID,98.3116,VALID,-0.0339617,VALID,18.6787,VALID,215,VALID,1.38692,
1999-12-24, 01:00:01,VALID,0,VALID,98.3472,VALID,-0.0169808,VALID,18.6487,VALID,213,VALID,1.41674,
1999-12-24, 01:01:00,VALID,0,VALID,98.3739,VALID,0,VALID,18.6722,VALID,222,VALID,1.20725,
1999-12-24, 01:02:00,VALID,0,VALID,98.4184,VALID,-0.0339617,VALID,18.6586,VALID,219,VALID,1.04167,
1999-12-24, 01:03:00,VALID,0,VALID,98.4413,VALID,0,VALID,18.6424,VALID,220,VALID,1.39492,
1999-12-24, 01:04:00,VALID,0,VALID,98.4769,VALID,0,VALID,18.6357,VALID,210,VALID,1.21504,
1999-12-24, 01:05:00,VALID,0,VALID,98.529,VALID,-0.0339617,VALID,18.6459,VALID,216,VALID,1.36164,
1999-12-24, 01:06:00,VALID,0,VALID,98.5583,VALID,-0.0339617,VALID,18.6293,VALID,207,VALID,1.37109,
1999-12-24, 01:07:00,VALID,0,VALID,98.5913,VALID,-0.0169808,VALID,18.6429,VALID,215,VALID,1.8598,
1999-12-24, 01:08:00,VALID,0,VALID,98.6396,VALID,-0.0339617,VALID,18.6397,VALID,220,VALID,1.36387,
1999-12-24, 01:09:00,VALID,0,VALID,98.6485,VALID,-0.0509425,VALID,18.6261,VALID,206,VALID,1.55228,
1999-12-24, 01:10:00,VALID,0,VALID,98.6384,VALID,-0.0509425,VALID,18.633,VALID,212,VALID,1.66036,
1999-12-24, 01:11:01,VALID,0,VALID,98.6702,VALID,-0.0169808,VALID,18.6295,VALID,220,VALID,1.34121,
1999-12-24, 01:12:00,VALID,0,VALID,98.7108,VALID,0.0169808,VALID,18.645,VALID,201,VALID,1.20508,
1999-12-24, 01:13:00,VALID,0,VALID,98.7554,VALID,0.0169808,VALID,18.6318,VALID,228,VALID,0.949424,
1999-12-24, 01:14:00,VALID,0,VALID,98.7795,VALID,0.0169808,VALID,18.6286,VALID,193,VALID,0.684005,
1999-12-24, 01:15:00,VALID,0,VALID,98.7579,VALID,0.0339617,VALID,18.6291,VALID,220,VALID,0.690378,
1999-12-24, 01:16:00,VALID,0,VALID,98.7465,VALID,0,VALID,18.6258,VALID,207,VALID,0.578993,
1999-12-24, 01:17:00,VALID,0,VALID,98.7223,VALID,0.0509425,VALID,18.6221,VALID,179,VALID,0.613064,
1999-12-24, 01:18:00,VALID,0,VALID,98.6358,VALID,0,VALID,18.6224,VALID,230,VALID,0.716602,
1999-12-24, 01:19:00,VALID,0.2,VALID,98.4451,VALID,0.0339617,VALID,18.6062,VALID,234,VALID,1.03066,
1999-12-24, 01:20:00,VALID,0,VALID,98.3523,VALID,0,VALID,18.6157,VALID,226,VALID,0.956003,
1999-12-24, 01:21:01,VALID,0,VALID,98.3217,VALID,0.0509425,VALID,18.6318,VALID,264,VALID,0.400699,
1999-12-24, 01:22:01,VALID,0,VALID,98.3077,VALID,0.0169808,VALID,18.6286,VALID,243,VALID,0.546242,
1999-12-24, 01:23:00,VALID,0,VALID,98.2696,VALID,0,VALID,18.6291,VALID,231,VALID,0.954492,
1999-12-24, 01:24:00,VALID,0,VALID,98.2467,VALID,0,VALID,18.6323,VALID,210,VALID,0.848958,
1999-12-24, 01:25:00,VALID,0,VALID,98.2785,VALID,0.0169808,VALID,18.6087,VALID,223,VALID,0.786595,
1999-12-24, 01:26:00,VALID,0,VALID,98.2416,VALID,-0.0339617,VALID,18.6007,VALID,230,VALID,0.835156,
1999-12-24, 01:27:00,VALID,0,VALID,98.2251,VALID,-0.0679233,VALID,18.6014,VALID,214,VALID,0.580295,
1999-12-24, 01:28:00,VALID,0,VALID,98.1958,VALID,-0.0849042,VALID,18.6011,VALID,224,VALID,1.11513,
1999-12-24, 01:29:00,VALID,0,VALID,98.1017,VALID,-0.0679233,VALID,18.591,VALID,225,VALID,1.05921,
1999-12-24, 01:30:00,VALID,0,VALID,98.0496,VALID,-0.0339617,VALID,18.594,VALID,223,VALID,0.956209,
1999-12-24, 01:31:01,VALID,0,VALID,97.9695,VALID,-0.0849042,VALID,18.6078,VALID,210,VALID,0.849826,
1999-12-24, 01:32:00,VALID,0,VALID,97.883,VALID,-0.0509425,VALID,18.6138,VALID,232,VALID,1.08333,
1999-12-24, 01:33:01,VALID,0,VALID,97.7559,VALID,-0.101885,VALID,18.6009,VALID,234,VALID,1.19336,
1999-12-24, 01:34:00,VALID,0,VALID,97.7826,VALID,-0.0849042,VALID,18.6238,VALID,236,VALID,0.635156,
1999-12-24, 01:35:00,VALID,0,VALID,97.8131,VALID,-0.0849042,VALID,18.6305,VALID,217,VALID,0.820107,
1999-12-24, 01:36:00,VALID,0,VALID,97.8169,VALID,-0.101885,VALID,18.627,VALID,229,VALID,0.565378,
1999-12-24, 01:37:00,VALID,0,VALID,97.8767,VALID,-0.0679233,VALID,18.6173,VALID,240,VALID,0.643159,
1999-12-24, 01:38:00,VALID,0,VALID,97.9161,VALID,-0.101885,VALID,18.6108,VALID,248,VALID,0.7,
1999-12-24, 01:39:00,VALID,0,VALID,97.9314,VALID,-0.0679233,VALID,18.5873,VALID,239,VALID,0.859175,
1999-12-24, 01:40:00,VALID,0,VALID,98.028,VALID,-0.0849042,VALID,18.6046,VALID,247,VALID,0.538035,
1999-12-24, 01:41:00,VALID,0,VALID,98.0623,VALID,-0.0679233,VALID,18.5875,VALID,247,VALID,0.590234,
1999-12-24, 01:42:00,VALID,0,VALID,98.1628,VALID,-0.101885,VALID,18.5947,VALID,248,VALID,0.421224,
1999-12-24, 01:43:00,VALID,0,VALID,98.2709,VALID,-0.0849042,VALID,18.5981,VALID,236,VALID,0.61102,
1999-12-24, 01:44:01,VALID,0,VALID,98.3535,VALID,-0.0679233,VALID,18.5847,VALID,247,VALID,0.791118,
1999-12-24, 01:45:00,VALID,0,VALID,98.4057,VALID,-0.0849042,VALID,18.5683,VALID,238,VALID,0.98972,
1999-12-24, 01:46:00,VALID,0,VALID,98.4527,VALID,-0.101885,VALID,18.5626,VALID,236,VALID,0.929899,
1999-12-24, 01:47:00,VALID,0,VALID,98.4896,VALID,-0.0849042,VALID,18.5527,VALID,230,VALID,0.940321,
1999-12-24, 01:48:00,VALID,0,VALID,98.5239,VALID,-0.101885,VALID,18.5499,VALID,220,VALID,1.36309,
1999-12-24, 01:49:00,VALID,0,VALID,98.5214,VALID,-0.0849042,VALID,18.5365,VALID,231,VALID,1.21406,
1999-12-24, 01:50:00,VALID,0,VALID,98.5303,VALID,-0.0849042,VALID,18.533,VALID,234,VALID,1.20107,
1999-12-24, 01:51:00,VALID,0,VALID,98.5646,VALID,-0.101885,VALID,18.54,VALID,225,VALID,1.09231,
1999-12-24, 01:52:00,VALID,0,VALID,98.5989,VALID,-0.101885,VALID,18.54,VALID,231,VALID,1.03209,
1999-12-24, 01:53:00,VALID,0,VALID,98.6117,VALID,-0.0849042,VALID,18.53,VALID,227,VALID,1.20332,
1999-12-24, 01:54:00,VALID,0,VALID,98.571,VALID,-0.101885,VALID,18.5238,VALID,224,VALID,1.20813,
1999-12-24, 01:55:01,VALID,0,VALID,98.5862,VALID,-0.101885,VALID,18.5333,VALID,221,VALID,1.36513,
1999-12-24, 01:56:00,VALID,0,VALID,98.5277,VALID,-0.118866,VALID,18.5303,VALID,216,VALID,1.59902,
1999-12-24, 01:57:00,VALID,0,VALID,98.5099,VALID,-0.0849042,VALID,18.5432,VALID,232,VALID,1.24891,
1999-12-24, 01:58:00,VALID,0,VALID,98.5163,VALID,-0.101885,VALID,18.5464,VALID,215,VALID,1.08059,
1999-12-24, 01:59:00,VALID,0,VALID,98.4998,VALID,-0.101885,VALID,18.5462,VALID,220,VALID,1.51295,
1999-12-24, 02:00:00,VALID,0,VALID,98.5074,VALID,-0.101885,VALID,18.5464,VALID,217,VALID,1.25144,
1999-12-24, 02:01:00,VALID,0,VALID,98.4959,VALID,-0.101885,VALID,18.5367,VALID,219,VALID,1.11133,
1999-12-24, 02:02:00,VALID,0,VALID,98.4629,VALID,-0.0849042,VALID,18.5266,VALID,221,VALID,1.57509,
1999-12-24, 02:03:00,VALID,0,VALID,98.3815,VALID,-0.0849042,VALID,18.5268,VALID,224,VALID,1.77129,
1999-12-24, 02:04:01,VALID,0,VALID,98.2302,VALID,-0.101885,VALID,18.5462,VALID,210,VALID,1.75918,
1999-12-24, 02:05:00,VALID,0,VALID,98.0153,VALID,-0.0679233,VALID,18.5723,VALID,214,VALID,2.00987,
1999-12-24, 02:06:01,VALID,0,VALID,97.836,VALID,-0.0679233,VALID,18.6046,VALID,217,VALID,1.48067,
1999-12-24, 02:07:00,VALID,0,VALID,97.6211,VALID,-0.0849042,VALID,18.621,VALID,226,VALID,1.73796,
1999-12-24, 02:08:00,VALID,0,VALID,97.4227,VALID,-0.101885,VALID,18.6464,VALID,212,VALID,1.8543,
1999-12-24, 02:09:00,VALID,0,VALID,97.2828,VALID,-0.101885,VALID,18.6722,VALID,191,VALID,1.4387,
1999-12-24, 02:10:00,VALID,0,VALID,97.2065,VALID,-0.0849042,VALID,18.6886,VALID,222,VALID,1.07422,
1999-12-24, 02:11:00,VALID,0,VALID,97.129,VALID,-0.0509425,VALID,18.6745,VALID,207,VALID,1.49668,
1999-12-24, 02:12:00,VALID,0,VALID,97.1086,VALID,0.0339617,VALID,18.6905,VALID,205,VALID,1.08268,
1999-12-24, 02:13:00,VALID,0,VALID,97.1404,VALID,0,VALID,18.6766,VALID,194,VALID,1.35609,
1999-12-24, 02:14:00,VALID,0,VALID,97.1697,VALID,0,VALID,18.6939,VALID,200,VALID,1.03639,
1999-12-24, 02:15:01,VALID,0,VALID,97.2739,VALID,0,VALID,18.6808,VALID,197,VALID,0.859786,
1999-12-24, 02:16:01,VALID,0,VALID,97.2956,VALID,0.0169808,VALID,18.6579,VALID,200,VALID,1.35786,
1999-12-24, 02:17:00,VALID,0,VALID,97.3299,VALID,0,VALID,18.6651,VALID,173,VALID,0.814887,
1999-12-24, 02:18:00,VALID,0,VALID,97.3655,VALID,0,VALID,18.6646,VALID,184,VALID,0.667188,
1999-12-24, 02:19:00,VALID,0,VALID,97.3451,VALID,0.0339617,VALID,18.6614,VALID,195,VALID,0.838867,
1999-12-24, 02:20:00,VALID,0,VALID,97.4291,VALID,0.0509425,VALID,18.6676,VALID,175,VALID,1.20189,
1999-12-24, 02:21:00,VALID,0,VALID,97.4812,VALID,0.0339617,VALID,18.6579,VALID,189,VALID,0.720395,
1999-12-24, 02:22:00,VALID,0,VALID,97.5931,VALID,0.0169808,VALID,18.651,VALID,167,VALID,0.888725,
1999-12-24, 02:23:00,VALID,0,VALID,97.7254,VALID,0.0169808,VALID,18.645,VALID,134,VALID,1.45137,
1999-12-24, 02:24:00,VALID,0,VALID,97.8093,VALID,0.0509425,VALID,18.632,VALID,165,VALID,1.41166,
1999-12-24, 02:25:00,VALID,0,VALID,97.8373,VALID,0.0169808,VALID,18.6226,VALID,179,VALID,1.59519,
1999-12-24, 02:26:00,VALID,0,VALID,97.8601,VALID,0.0169808,VALID,18.6228,VALID,196,VALID,1.40703,
1999-12-24, 02:27:00,VALID,0,VALID,97.8093,VALID,0,VALID,18.603,VALID,182,VALID,1.30794,
1999-12-24, 02:28:00,VALID,0,VALID,97.6605,VALID,0.0169808,VALID,18.6127,VALID,201,VALID,1.13261,
1999-12-24, 02:29:00,VALID,0,VALID,97.4596,VALID,0,VALID,18.6422,VALID,190,VALID,1.79276,
1999-12-24, 02:30:00,VALID,0,VALID,97.3795,VALID,0,VALID,18.6611,VALID,207,VALID,1.82422,
1999-12-24, 02:31:00,VALID,0,VALID,97.3045,VALID,0,VALID,18.6775,VALID,200,VALID,1.25304,
1999-12-24, 02:32:00,VALID,0,VALID,97.2777,VALID,0.0169808,VALID,18.6711,VALID,200,VALID,1.44835,
1999-12-24, 02:33:00,VALID,0,VALID,97.1226,VALID,0,VALID,18.6676,VALID,211,VALID,1.09629,
1999-12-24, 02:34:00,VALID,0,VALID,96.9726,VALID,0.0169808,VALID,18.6872,VALID,200,VALID,1.14121,
1999-12-24, 02:35:00,VALID,0,VALID,96.647,VALID,0,VALID,18.6935,VALID,200,VALID,1.5183,
1999-12-24, 02:36:00,VALID,0,VALID,96.4474,VALID,0.0339617,VALID,18.7322,VALID,185,VALID,1.51357,
1999-12-24, 02:37:00,VALID,0,VALID,96.3914,VALID,0.0339617,VALID,18.7549,VALID,211,VALID,1.07517,
1999-12-24, 02:38:00,VALID,0,VALID,96.4868,VALID,0.0339617,VALID,18.7482,VALID,208,VALID,1.14707,
1999-12-24, 02:39:00,VALID,0,VALID,96.5262,VALID,0.0169808,VALID,18.732,VALID,171,VALID,0.917468,
1999-12-24, 02:40:00,VALID,0,VALID,96.4894,VALID,0,VALID,18.7258,VALID,196,VALID,1.31702,
1999-12-24, 02:41:00,VALID,0,VALID,96.3673,VALID,0,VALID,18.7258,VALID,209,VALID,1.11699,
1999-12-24, 02:42:00,VALID,0,VALID,96.3596,VALID,0,VALID,18.7318,VALID,202,VALID,1.20161,
1999-12-24, 02:43:00,VALID,0,VALID,96.2236,VALID,0.0339617,VALID,18.7385,VALID,188,VALID,1.49322,
1999-12-24, 02:44:00,VALID,0,VALID,96.2592,VALID,0.0339617,VALID,18.7576,VALID,144,VALID,0.881168,
1999-12-24, 02:45:00,VALID,0,VALID,96.3838,VALID,0.0339617,VALID,18.7643,VALID,184,VALID,0.662623,
1999-12-24, 02:46:00,VALID,0,VALID,96.2884,VALID,0,VALID,18.7514,VALID,215,VALID,0.597873,
1999-12-24, 02:47:00,VALID,0,VALID,96.3558,VALID,0.0339617,VALID,18.7579,VALID,215,VALID,0.136502,
1999-12-24, 02:48:01,VALID,0,VALID,96.3024,VALID,0.0339617,VALID,18.7484,VALID,209,VALID,0.570117,
1999-12-24, 02:49:01,VALID,0,VALID,96.3291,VALID,0.0509425,VALID,18.7576,VALID,182,VALID,0.187891,
1999-12-24, 02:50:00,VALID,0,VALID,96.2999,VALID,0.0169808,VALID,18.7606,VALID,161,VALID,0.421258,
1999-12-24, 02:51:00,VALID,0,VALID,96.1219,VALID,0,VALID,18.7805,VALID,203,VALID,1.02961,
1999-12-24, 02:52:00,VALID,0,VALID,96.0163,VALID,0.0679233,VALID,18.7772,VALID,181,VALID,0.754856,
1999-12-24, 02:53:00,VALID,0,VALID,95.9273,VALID,0.0169808,VALID,18.7934,VALID,207,VALID,0.486523,
1999-12-24, 02:54:00,VALID,0,VALID,95.762,VALID,0.0339617,VALID,18.7994,VALID,196,VALID,0.866987,
1999-12-24, 02:55:00,VALID,0,VALID,95.6857,VALID,0.0339617,VALID,18.813,VALID,199,VALID,0.729852,
1999-12-24, 02:56:00,VALID,0,VALID,95.6844,VALID,0.0169808,VALID,18.823,VALID,224,VALID,0.379297,
1999-12-24, 02:57:00,VALID,0,VALID,95.7264,VALID,0.0169808,VALID,18.8165,VALID,203,VALID,0.624783,
1999-12-24, 02:58:00,VALID,0,VALID,95.7569,VALID,0.0339617,VALID,18.8165,VALID,219,VALID,1.14268,
1999-12-24, 02:59:01,VALID,0,VALID,95.7823,VALID,0.0169808,VALID,18.8232,VALID,232,VALID,0.831414,
1999-12-24, 03:00:01,VALID,0,VALID,95.8447,VALID,0,VALID,18.8167,VALID,213,VALID,0.779194,
1999-12-24, 03:01:00,VALID,0,VALID,95.8981,VALID,-0.0169808,VALID,18.8103,VALID,219,VALID,0.841146,
1999-12-24, 03:02:00,VALID,0,VALID,95.9133,VALID,0.0169808,VALID,18.82,VALID,219,VALID,0.843099,
1999-12-24, 03:03:00,VALID,0,VALID,96.0278,VALID,0,VALID,18.8135,VALID,206,VALID,1.02617,
1999-12-24, 03:04:00,VALID,0,VALID,95.954,VALID,0.0169808,VALID,18.7973,VALID,209,VALID,1.13789,
1999-12-24, 03:05:00,VALID,0,VALID,95.7773,VALID,0,VALID,18.7976,VALID,215,VALID,1.30284,
1999-12-24, 03:06:00,VALID,0,VALID,95.7378,VALID,0,VALID,18.8135,VALID,225,VALID,1.00966,
1999-12-24, 03:07:00,VALID,0,VALID,95.7734,VALID,0,VALID,18.8364,VALID,213,VALID,1.16195,
1999-12-24, 03:08:00,VALID,0,VALID,95.5458,VALID,0.0169808,VALID,18.823,VALID,222,VALID,1.16465,
1999-12-24, 03:09:00,VALID,0,VALID,95.4136,VALID,0.0169808,VALID,18.8456,VALID,218,VALID,1.53185,
1999-12-24, 03:10:00,VALID,0,VALID,95.2216,VALID,0,VALID,18.8617,VALID,218,VALID,1.52159,
1999-12-24, 03:11:00,VALID,0,VALID,95.2343,VALID,-0.0169808,VALID,18.8881,VALID,220,VALID,1.14492,
1999-12-24, 03:12:00,VALID,0,VALID,95.3233,VALID,-0.101885,VALID,18.8987,VALID,222,VALID,0.941406,
1999-12-24, 03:13:00,VALID,0,VALID,95.4454,VALID,-0.0849042,VALID,18.8826,VALID,214,VALID,1.12294,
1999-12-24, 03:14:00,VALID,0,VALID,95.481,VALID,-0.0849042,VALID,18.8632,VALID,223,VALID,0.924548,
1999-12-24, 03:15:00,VALID,0,VALID,95.5662,VALID,-0.0849042,VALID,18.8569,VALID,230,VALID,0.610197,
1999-12-24, 03:16:00,VALID,0,VALID,95.6806,VALID,-0.101885,VALID,18.847,VALID,244,VALID,0.602214,
1999-12-24, 03:17:00,VALID,0,VALID,95.7938,VALID,-0.101885,VALID,18.8472,VALID,198,VALID,0.651476,
1999-12-24, 03:18:00,VALID,0,VALID,95.6654,VALID,-0.101885,VALID,18.838,VALID,237,VALID,0.883398,
1999-12-24, 03:19:00,VALID,0,VALID,95.7137,VALID,-0.101885,VALID,18.8408,VALID,240,VALID,0.480273,
1999-12-24, 03:20:00,VALID,0,VALID,95.8243,VALID,-0.101885,VALID,18.8341,VALID,214,VALID,0.269531,
1999-12-24, 03:21:01,VALID,0,VALID,95.982,VALID,-0.101885,VALID,18.8279,VALID,214,VALID,0.106702,
1999-12-24, 03:22:00,VALID,0,VALID,95.8218,VALID,-0.118866,VALID,18.8214,VALID,202,VALID,0.658573,
1999-12-24, 03:23:00,VALID,0,VALID,95.8078,VALID,-0.0849042,VALID,18.8147,VALID,220,VALID,0.578125,
1999-12-24, 03:24:00,VALID,0,VALID,95.8281,VALID,-0.101885,VALID,18.8182,VALID,183,VALID,0.589143,
1999-12-24, 03:25:00,VALID,0,VALID,95.9438,VALID,-0.118866,VALID,18.8216,VALID,180,VALID,0.190584,
1999-12-24, 03:26:00,VALID,0,VALID,96.1219,VALID,-0.0679233,VALID,18.8147,VALID,212,VALID,0,
1999-12-24, 03:27:00,VALID,0,VALID,96.2605,VALID,-0.0849042,VALID,18.8018,VALID,215,VALID,0,
1999-12-24, 03:28:00,VALID,0,VALID,96.3507,VALID,-0.0849042,VALID,18.7858,VALID,224,VALID,0,
1999-12-24, 03:29:00,VALID,0,VALID,96.4754,VALID,-0.118866,VALID,18.7657,VALID,224,VALID,0,
1999-12-24, 03:30:00,VALID,0,VALID,96.5351,VALID,-0.101885,VALID,18.7625,VALID,227,VALID,0,
1999-12-24, 03:31:00,VALID,0,VALID,96.7322,VALID,-0.101885,VALID,18.7565,VALID,230,VALID,0,
1999-12-24, 03:32:00,VALID,0,VALID,96.9916,VALID,-0.0849042,VALID,18.76,VALID,217,VALID,0.0516493,
1999-12-24, 03:33:01,VALID,0,VALID,96.9548,VALID,-0.0849042,VALID,18.7406,VALID,188,VALID,0.0414063,
1999-12-24, 03:34:00,VALID,0,VALID,96.909,VALID,-0.0849042,VALID,18.721,VALID,191,VALID,0,
1999-12-24, 03:35:00,VALID,0,VALID,97.1646,VALID,-0.0849042,VALID,18.7408,VALID,191,VALID,0,
1999-12-24, 03:36:00,VALID,0,VALID,97.2612,VALID,-0.0849042,VALID,18.7242,VALID,191,VALID,0,
1999-12-24, 03:37:00,VALID,0,VALID,97.4075,VALID,-0.101885,VALID,18.7177,VALID,201,VALID,0,
1999-12-24, 03:38:00,VALID,0,VALID,97.5054,VALID,-0.101885,VALID,18.702,VALID,233,VALID,0.286523,
1999-12-24, 03:39:00,VALID,0,VALID,97.5194,VALID,-0.0849042,VALID,18.6854,VALID,227,VALID,0.352564,
1999-12-24, 03:40:00,VALID,0,VALID,97.6287,VALID,-0.101885,VALID,18.6662,VALID,231,VALID,0.280222,
1999-12-24, 03:41:00,VALID,0,VALID,97.6898,VALID,-0.0679233,VALID,18.6558,VALID,236,VALID,0,
1999-12-24, 03:42:00,VALID,0,VALID,97.7292,VALID,0.0169808,VALID,18.6355,VALID,218,VALID,0,
1999-12-24, 03:43:00,VALID,0,VALID,97.8652,VALID,0,VALID,18.632,VALID,219,VALID,0,
1999-12-24, 03:44:01,VALID,0,VALID,97.8601,VALID,0.0169808,VALID,18.6097,VALID,213,VALID,0,
1999-12-24, 03:45:00,VALID,0,VALID,97.8958,VALID,0.0509425,VALID,18.5893,VALID,213,VALID,0.652755,
1999-12-24, 03:46:00,VALID,0,VALID,97.9949,VALID,0.0339617,VALID,18.5801,VALID,224,VALID,0.72526,
1999-12-24, 03:47:00,VALID,0,VALID,98.0433,VALID,0.0339617,VALID,18.5743,VALID,233,VALID,1.15473,
1999-12-24, 03:48:00,VALID,0,VALID,98.1017,VALID,0.0339617,VALID,18.5515,VALID,239,VALID,1.16953,
1999-12-24, 03:49:00,VALID,0,VALID,98.1831,VALID,0.0509425,VALID,18.5448,VALID,239,VALID,1.40664,
1999-12-24, 03:50:00,VALID,0,VALID,98.2493,VALID,0.0339617,VALID,18.5487,VALID,245,VALID,0.927015,
1999-12-24, 03:51:00,VALID,0,VALID,98.3535,VALID,0.0169808,VALID,18.5321,VALID,246,VALID,0.640625,
1999-12-24, 03:52:00,VALID,0,VALID,98.4464,VALID,0.0509425,VALID,18.5222,VALID,243,VALID,0.734797,
1999-12-24, 03:53:00,VALID,0,VALID,98.5099,VALID,0.0509425,VALID,18.5058,VALID,252,VALID,1.04062,
1999-12-24, 03:54:00,VALID,0,VALID,98.6256,VALID,0,VALID,18.5058,VALID,234,VALID,0.708133,
1999-12-24, 03:55:00,VALID,0,VALID,98.7058,VALID,0.0169808,VALID,18.4998,VALID,230,VALID,1.37603,
1999-12-24, 03:56:00,VALID,0,VALID,98.7884,VALID,0,VALID,18.4936,VALID,235,VALID,1.19824,
1999-12-24, 03:57:00,VALID,0,VALID,98.8812,VALID,-0.0339617,VALID,18.4841,VALID,229,VALID,0.983941,
1999-12-24, 03:58:00,VALID,0,VALID,98.9626,VALID,-0.0509425,VALID,18.4682,VALID,231,VALID,1.30099,
1999-12-24, 03:59:00,VALID,0,VALID,99.0148,VALID,-0.0679233,VALID,18.4513,VALID,239,VALID,1.04914,
1999-12-24, 04:00:00,VALID,0,VALID,99.0809,VALID,-0.0339617,VALID,18.4455,VALID,236,VALID,1.1213,
1999-12-24, 04:01:00,VALID,0,VALID,99.1343,VALID,-0.0509425,VALID,18.4416,VALID,235,VALID,1.27604,
1999-12-24, 04:02:00,VALID,0,VALID,99.1546,VALID,-0.0509425,VALID,18.4453,VALID,228,VALID,0.947266,
1999-12-24, 04:03:00,VALID,0,VALID,99.1763,VALID,-0.0339617,VALID,18.4384,VALID,248,VALID,0.618945,
1999-12-24, 04:04:00,VALID,0,VALID,99.1775,VALID,-0.0509425,VALID,18.4515,VALID,237,VALID,1.08789,